Regional Weather Roundup
Issued by NWS

Home | Current Version | Previous Version | Graphics & Text | Print | Product List | Glossary On
Versions: 1 2 3 4 5 6 7 8 9 10 11 12 13 14 15 16 17 18 19 20 21 22 23 24 25 26 27 28 29 30 31 32 33 34 35 36 37 38 39 40 41 42 43 44 45 46 47 48 49 50
000
ASUS45 KABQ 250201
RWRNM
NEW MEXICO REGIONAL WEATHER ROUNDUP
NATIONAL WEATHER SERVICE ALBUQUERQUE NM
800 PM MDT FRI MAR 24 2017

NOTE: "FAIR" MEANS FEW OR NO CLOUDS BELOW 12,000 FEET AGL WITH NO
       SIGNIFICANT WEATHER OR OBSTRUCTIONS TO VISION.

      THIS PRODUCT IS RELEASED AS TWO VERSIONS.  ONE VERSION NEAR
      THE TOP OF THE HOUR CONTAINING PRELIMINARY DATA FROM ALBUQUERQUE
      AND OTHER STATIONS.  A FINAL VERSION WITH ADDITIONAL DATA IS
      ISSUED ABOUT 10 MINUTES AFTER THE HOUR.

NMZ501-503-504-510>518-250300-
NORTHWEST PLATEAU/NORTHCENTRAL MOUNTAINS

CITY           SKY/WX    TMP DP  RH WIND       PRES   REMARKS
FARMINGTON     FAIR      55  21  26 W18       30.10R
LOS ALAMOS     FAIR      53  22  30 NW3       30.16R
SANTA FE       FAIR      50  28  42 N5        30.11R
TAOS             N/A     41  27  56 N6        30.16R
ANGEL FIRE     FAIR      33  28  83 W6        30.18R WCI  28

$$
NMZ402-403-502-505>509-250300-
WESTCENTRAL MOUNTAINS/SOUTHWEST MOUNTAINS

CITY           SKY/WX    TMP DP  RH WIND       PRES   REMARKS
GALLUP         FAIR      49  19  30 W5        30.20R
GRANTS         FAIR      49  24  37 W10       30.19R
SILVER CITY    FAIR      56  27  33 W9        30.16R

$$
NMZ407-409-411-412-250300-
SOUTHERN DESERTS

CITY           SKY/WX    TMP DP  RH WIND       PRES   REMARKS
DEMING         FAIR      64  24  21 W16G24    30.10R
LAS CRUCES     FAIR      64  23  21 W17G24    30.09R
HOLLOMAN AFB   FAIR      67  21  17 NE6       30.08R
ALAMOGORDO     FAIR      66  19  16 N6        30.06R
T OR C         FAIR      65  15  14 NW9       30.07R

$$
NMZ519>523-250300-
CENTRAL VALLEYS/CENTRAL HIGHLANDS

CITY           SKY/WX    TMP DP  RH WIND       PRES   REMARKS
ALBUQUERQUE    FAIR      63  15  15 NW15      30.10R
DOUBLE EAGLE   CLEAR     55  18  22 NW13      30.13R
MORIARTY ARPT  FAIR      53  24  32 NW6       30.14R
CLINES CORNERS FAIR      49  26  41 NE3       30.16R
BELEN          FAIR      57  15  19 W8        30.10R
SOCORRO        FAIR      64  22  20 W15G26    30.07R

$$
NMZ524>526-539-540-250300-
SOUTHCENTRAL MOUNTAINS

CITY           SKY/WX    TMP DP  RH WIND       PRES   REMARKS
RUIDOSO        NOT AVBL

$$
NMZ527>531-250300-
NORTHEAST HIGHLANDS/NORTHEAST PLAINS

CITY           SKY/WX    TMP DP  RH WIND       PRES   REMARKS
LAS VEGAS      FAIR      36  25  64 NE13      30.14R WCI  27
RATON          NOT AVBL
CLAYTON        FAIR      41  35  79 N28G44    30.05S

$$
NMZ532>537-250300-
EASTCENTRAL PLAINS

CITY           SKY/WX    TMP DP  RH WIND       PRES   REMARKS
TUCUMCARI      FAIR      52  30  43 N25G33    30.07R
CANNON AFB     FAIR      49  30  48 N18G28    30.08R
CLOVIS AIRPORT FAIR      48  28  46 N16G22    30.10R

$$
NMZ028-029-538-250300-
SOUTHEAST PLAINS

CITY           SKY/WX    TMP DP  RH WIND       PRES   REMARKS
ROSWELL        FAIR      61  28  28 NE13        N/A
ARTESIA        FAIR      64  28  25 NE14      30.03R
CARLSBAD       FAIR      67  29  24 NE8       30.01R
HOBBS          FAIR      59  25  27 N20       30.05R


$$




USA.gov is the U.S. government's official web portal to all federal, state and local government web resources and services.